Weather in Yarkul

Russia / Novosibirsk Oblast     55°59′30″N   75°40′44″E
temp.,
°C
wind,
m/s
gust,
m/s
humid.,
%
clouds,
%
prec.,
mm/h
press.,
hPa
HPBL,
m
7 march, sun
sun701:00−13wsw5129253 0.1 1010270
04:00−15wsw499668 0.0 1011163
07:00−16sw499646 0.0 1013143
10:00−15sw5119339 0.0 1014238
13:00−11wsw599145 0.0 1016407
16:00−9sw479299 0.0 1016440
19:00−10s3694100 0.0 1016164
22:00−10se4990100 0.0 1013252
8 march, mon
mon801:00−7se81595100 1.6 1008602
04:000ssw101697100 2.4 1003916
07:000ssw101797100 4.1 1000810
10:00−1ssw91696100 1.9 998859
13:00−1wsw91396100 4.4 1000862
16:00−7wnw81287100 0.7 1003763
19:00−9w61290100 0.7 1008512
22:00−11w6139197 0.0 1012487
9 march, tue
tue901:00−13wsw5119199 0.1 1015404
04:00−15sw5109594 0.0 1016231
07:00−14ssw6129294 0.1 1016406
10:00−15ssw61293100 0.1 1016404
13:00−11ssw71292100 0.1 1016525
16:00−9sw71192100 0.1 1016539
19:00−9ssw61093100 0.1 1016490
22:00−10ssw51195100 0.1 1015360
10 march, wed
wed1001:00−11ssw51096100 0.1 1014256
04:00−11ssw61193100 0.0 1012292
07:00−11ssw61192100 0.0 1011306
10:00−11ssw51091100 0.0 1009281
13:00−8s5894100 0.1 1007326
16:00−7sse3586100 0.2 1004296
19:00−8ese2495100 0.5 1000278
22:00−9nne1296100 1.1 99830
11 march, thu
thu1101:00−10wnw3596100 1.5 997136
04:00−9wsw4895100 0.2 999222
07:00−9ssw489599 0.5 1000214
10:00−7sw71293100 0.8 1001745
13:00−10sw81289100 1.0 1003879
16:00−9w81189100 0.3 1007889
19:00−13wsw51092100 0.3 1011527
22:00−15sw3896100 0.1 1014266